FW9047 Weather Reports


Display with metric or nautical units.
time (UTC)temp
F
wind
direction
speed
MPH
gust
MPH
rain 1hr
in
rain 24hr
in
rain mn
in
humidity
%
barometer
mb
20210614150203 71 184 7.0 9.0 0.00 0.00 0.00 51 1012.0
20210614145703 71 225 8.0 9.0 0.00 0.00 0.00 51 1012.0
20210614145203 71 225 8.0 13.0 0.00 0.00 0.00 50 1012.0
20210614144702 72 180 8.0 10.0 0.00 0.00 0.00 48 1011.8
20210614144203 72 225 8.0 12.0 0.00 0.00 0.00 47 1011.8
20210614143703 73 248 8.0 12.0 0.00 0.00 0.00 46 1011.8
20210614143203 73 272 7.0 12.0 0.00 0.00 0.00 44 1011.8
20210614142703 74 0 6.0 10.0 0.00 0.00 0.00 43 1011.4
20210614142202 74 245 6.0 10.0 0.00 0.00 0.00 41 1011.4
20210614141702 74 202 7.0 8.0 0.00 0.00 0.00 41 1011.4
20210614141203 74 116 7.0 10.0 0.00 0.00 0.00 40 1011.4
20210614140703 75 135 7.0 12.0 0.00 0.00 0.00 39 1011.4
20210614140202 76 177 7.0 12.0 0.00 0.00 0.00 36 1011.4
20210614135703 77 68 7.0 10.0 0.00 0.00 0.00 32 1011.4
20210614135203 77 89 7.0 12.0 0.00 0.00 0.00 30 1011.4
20210614134702 77 68 7.0 10.0 0.00 0.00 0.00 29 1011.4
20210614134203 77 88 7.0 13.0 0.00 0.00 0.00 29 1011.4
20210614133702 77 135 6.0 13.0 0.00 0.00 0.00 29 1011.4
20210614133202 77 68 7.0 9.0 0.00 0.00 0.00 30 1011.4
20210614132702 77 68 9.0 10.0 0.00 0.00 0.00 30 1011.4
20210614132203 77 68 9.0 13.0 0.00 0.00 0.00 30 1011.4
20210614131704 77 90 9.0 12.0 0.00 0.00 0.00 30 1011.4
20210614131202 77 290 8.0 12.0 0.00 0.00 0.00 29 1011.4
20210614130703 78 135 6.0 12.0 0.00 0.00 0.00 28 1011.3
20210614130202 78 4 5.0 10.0 0.00 0.00 0.00 28 1011.3
20210614125702 78 68 4.0 10.0 0.00 0.00 0.00 29 1011.3
20210614125202 78 196 3.0 6.0 0.00 0.00 0.00 29 1011.3
20210614124703 78 68 3.0 9.0 0.00 0.00 0.00 29 1011.6
20210614124203 78 244 3.0 9.0 0.00 0.00 0.00 29 1011.6
20210614123703 78 292 3.0 9.0 0.00 0.00 0.00 29 1011.6
20210614123202 78 90 3.0 6.0 0.00 0.00 0.00 30 1011.6
20210614122704 78 68 4.0 6.0 0.00 0.00 0.00 30 1011.5
20210614122202 78 5 5.0 5.0 0.00 0.00 0.00 30 1011.5
20210614121703 77 292 3.0 2.0 0.00 0.00 0.00 29 1011.5
20210614121203 77 292 3.0 2.0 0.00 0.00 0.00 29 1011.5
20210614120703 77 0 3.0 5.0 0.00 0.00 0.00 29 1011.8
20210614120203 77 175 3.0 9.0 0.00 0.00 0.00 29 1011.8
20210614115703 77 135 3.0 5.0 0.00 0.00 0.00 30 1011.8
20210614115203 77 63 5.0 9.0 0.00 0.00 0.00 30 1011.8
20210614114703 77 112 5.0 9.0 0.00 0.00 0.00 31 1011.9
20210614114203 77 110 5.0 6.0 0.00 0.00 0.00 30 1011.9
20210614113702 78 0 4.0 7.0 0.00 0.00 0.00 30 1011.9
20210614113202 78 24 4.0 6.0 0.00 0.00 0.00 30 1011.9
20210614112702 78 45 5.0 5.0 0.00 0.00 0.00 30 1011.9
20210614112203 78 43 5.0 7.0 0.00 0.00 0.00 29 1011.9
20210614111703 78 112 5.0 6.0 0.00 0.00 0.00 30 1011.9
20210614111203 78 141 6.0 8.0 0.00 0.00 0.00 30 1011.9
20210614110702 78 68 5.0 10.0 0.00 0.00 0.00 31 1012.2
20210614110203 77 0 6.0 9.0 0.00 0.00 0.00 31 1012.2
20210614105703 77 158 7.0 13.0 0.00 0.00 0.00 31 1012.2
20210614105203 78 106 5.0 15.0 0.00 0.00 0.00 30 1012.2
20210614104703 78 0 3.0 6.0 0.00 0.00 0.00 31 1012.1
20210614104203 78 87 5.0 8.0 0.00 0.00 0.00 30 1012.1
20210614103703 78 68 5.0 9.0 0.00 0.00 0.00 30 1012.1
20210614103202 78 90 5.0 8.0 0.00 0.00 0.00 31 1012.1
20210614102703 78 338 5.0 10.0 0.00 0.00 0.00 30 1012.4
20210614102203 78 294 5.0 7.0 0.00 0.00 0.00 31 1012.4
20210614101702 78 22 5.0 9.0 0.00 0.00 0.00 30 1012.4
20210614101203 79 70 5.0 9.0 0.00 0.00 0.00 31 1012.4
20210614100703 79 0 5.0 7.0 0.00 0.00 0.00 31 1012.6
20210614100203 79 341 5.0 6.0 0.00 0.00 0.00 31 1012.6
20210614095703 78 65 5.0 6.0 0.00 0.00 0.00 31 1012.6
20210614095203 78 47 5.0 10.0 0.00 0.00 0.00 31 1012.6
20210614094703 78 0 5.0 7.0 0.00 0.00 0.00 31 1012.6
20210614094203 78 0 5.0 9.0 0.00 0.00 0.00 31 1012.6
20210614093704 78 45 5.0 9.0 0.00 0.00 0.00 31 1012.6
20210614093202 78 64 3.0 7.0 0.00 0.00 0.00 31 1012.6
20210614092703 78 90 3.0 5.0 0.00 0.00 0.00 31 1012.8
20210614092203 78 299 3.0 8.0 0.00 0.00 0.00 31 1012.8
20210614091703 78 22 3.0 5.0 0.00 0.00 0.00 32 1012.8
20210614091203 77 26 5.0 8.0 0.00 0.00 0.00 32 1012.8
20210614090703 77 68 5.0 8.0 0.00 0.00 0.00 31 1012.8
20210614090204 77 95 3.0 7.0 0.00 0.00 0.00 32 1012.8
20210614085703 77 68 3.0 8.0 0.00 0.00 0.00 32 1012.8
20210614085203 77 86 5.0 8.0 0.00 0.00 0.00 33 1012.8
20210614084705 77 22 5.0 13.0 0.00 0.00 0.00 33 1012.8
20210614084203 76 92 5.0 13.0 0.00 0.00 0.00 33 1012.8
20210614083703 76 112 5.0 7.0 0.00 0.00 0.00 34 1012.8
20210614083203 76 47 5.0 6.0 0.00 0.00 0.00 34 1012.8
20210614082703 76 22 3.0 7.0 0.00 0.00 0.00 35 1012.9
20210614082203 76 129 5.0 7.0 0.00 0.00 0.00 36 1012.9
20210614081703 76 338 5.0 10.0 0.00 0.00 0.00 36 1012.9
20210614081203 76 84 3.0 10.0 0.00 0.00 0.00 36 1012.9
20210614080703 75 22 5.0 10.0 0.00 0.00 0.00 37 1012.8
20210614080205 74 68 5.0 8.0 0.00 0.00 0.00 37 1012.8
20210614075703 74 45 7.0 10.0 0.00 0.00 0.00 37 1012.8
20210614075203 74 88 6.0 13.0 0.00 0.00 0.00 38 1012.8
20210614074703 74 135 4.0 9.0 0.00 0.00 0.00 39 1013.1
20210614074203 73 24 5.0 6.0 0.00 0.00 0.00 39 1013.1
20210614073703 73 338 5.0 7.0 0.00 0.00 0.00 39 1013.1
20210614073203 72 72 6.0 8.0 0.00 0.00 0.00 39 1013.1
20210614072703 72 90 5.0 8.0 0.00 0.00 0.00 39 1013.2
20210614072204 72 68 5.0 8.0 0.00 0.00 0.00 40 1013.2
20210614071703 72 90 6.0 5.0 0.00 0.00 0.00 40 1013.2
20210614071203 72 74 7.0 8.0 0.00 0.00 0.00 40 1013.2
20210614070703 72 90 7.0 10.0 0.00 0.00 0.00 40 1013.4
20210614070203 72 90 7.0 9.0 0.00 0.00 0.00 40 1013.4
20210614065703 72 90 6.0 13.0 0.00 0.00 0.00 40 1013.4
20210614065204 71 52 6.0 9.0 0.00 0.00 0.00 41 1013.4
20210614064703 71 68 6.0 10.0 0.00 0.00 0.00 41 1013.6
20210614064203 71 173 5.0 10.0 0.00 0.00 0.00 42 1013.6
20210614063703 70 135 6.0 6.0 0.00 0.00 0.00 43 1013.6
20210614063203 70 88 6.0 12.0 0.00 0.00 0.00 43 1013.6
20210614062703 70 45 5.0 6.0 0.00 0.00 0.00 43 1013.6
20210614062203 69 6 5.0 12.0 0.00 0.00 0.00 44 1013.6
20210614061703 69 90 5.0 12.0 0.00 0.00 0.00 45 1013.6
20210614061204 69 90 5.0 12.0 0.00 0.00 0.00 45 1013.6
20210614060703 69 90 5.0 8.0 0.00 0.00 0.00 45 1013.5
20210614060203 69 40 3.0 8.0 0.00 0.00 0.00 46 1013.5
20210614055703 68 90 2.0 7.0 0.00 0.00 0.00 46 1013.5
20210614055204 68 273 3.0 3.0 0.00 0.00 0.00 47 1013.5
20210614054703 68 90 3.0 7.0 0.00 0.00 0.00 46 1013.6
20210614054203 68 65 3.0 5.0 0.00 0.00 0.00 47 1013.6
20210614053703 67 68 5.0 6.0 0.00 0.00 0.00 47 1013.6
20210614053203 67 28 6.0 9.0 0.00 0.00 0.00 47 1013.6
20210614052704 67 68 4.0 9.0 0.00 0.00 0.00 47 1013.4
20210614052203 67 130 3.0 7.0 0.00 0.00 0.00 47 1013.4
20210614051703 67 270 3.0 5.0 0.00 0.00 0.00 47 1013.4
20210614051203 67 74 4.0 7.0 0.00 0.00 0.00 48 1013.4
20210614050704 67 0 5.0 9.0 0.00 0.00 0.00 48 1013.3
20210614050203 66 88 5.0 5.0 0.00 0.00 0.00 48 1013.3
20210614045703 66 135 5.0 9.0 0.00 0.00 0.00 48 1013.3
20210614045203 66 116 5.0 10.0 0.00 0.00 0.00 48 1013.3
20210614044703 66 0 5.0 10.0 0.00 0.00 0.00 48 1013.1
20210614044203 66 68 5.0 6.0 0.00 0.00 0.00 48 1013.1
20210614043703 66 0 5.0 6.0 0.00 0.00 0.00 48 1013.1
20210614043203 65 175 5.0 7.0 0.00 0.00 0.00 48 1013.1
20210614042704 65 135 5.0 9.0 0.00 0.00 0.00 49 1013.2
20210614042204 65 68 5.0 9.0 0.00 0.00 0.00 49 1013.2
20210614041703 65 90 5.0 8.0 0.00 0.00 0.00 49 1013.2
20210614041204 65 306 6.0 7.0 0.00 0.00 0.00 48 1013.2
20210614040703 65 112 6.0 8.0 0.00 0.00 0.00 48 1013.2
20210614040204 65 75 6.0 9.0 0.00 0.00 0.00 48 1013.2
20210614035703 65 81 5.0 8.0 0.00 0.00 0.00 48 1013.2
20210614035203 65 81 6.0 12.0 0.00 0.00 0.00 48 1013.2
20210614034703 65 68 6.0 7.0 0.00 0.00 0.00 48 1013.3
20210614034204 65 61 5.0 8.0 0.00 0.00 0.00 48 1013.3
20210614033703 65 90 5.0 8.0 0.00 0.00 0.00 48 1013.3
20210614033203 65 75 5.0 6.0 0.00 0.00 0.00 48 1013.3
20210614032703 65 68 4.0 7.0 0.00 0.00 0.00 48 1013.4
20210614032204 65 97 3.0 7.0 0.00 0.00 0.00 47 1013.4
20210614031703 65 90 3.0 6.0 0.00 0.00 0.00 47 1013.4
20210614031204 65 90 3.0 6.0 0.00 0.00 0.00 47 1013.4
20210614030704 65 270 5.0 6.0 0.00 0.00 0.00 47 1013.2
20210614030203 65 68 4.0 7.0 0.00 0.00 0.00 47 1013.2
20210614025703 65 68 3.0 7.0 0.00 0.00 0.00 47 1013.2
20210614025203 65 68 5.0 8.0 0.00 0.00 0.00 47 1013.2
20210614024703 65 68 6.0 8.0 0.00 0.00 0.00 47 1013.3
20210614024204 65 111 6.0 10.0 0.00 0.00 0.00 46 1013.3
20210614023704 65 68 5.0 9.0 0.00 0.00 0.00 47 1013.3
20210614023203 65 68 5.0 9.0 0.00 0.00 0.00 47 1013.3
20210614022703 66 33 5.0 9.0 0.00 0.00 0.00 47 1013.4
20210614022203 66 83 5.0 6.0 0.00 0.00 0.00 46 1013.4
20210614021703 66 68 6.0 10.0 0.00 0.00 0.00 46 1013.4
20210614021203 66 150 6.0 10.0 0.00 0.00 0.00 46 1013.4
20210614020704 66 68 7.0 9.0 0.00 0.00 0.00 46 1013.4
20210614020204 66 183 7.0 13.0 0.00 0.00 0.00 46 1013.4
20210614015704 66 90 7.0 13.0 0.00 0.00 0.00 46 1013.4
20210614015204 66 68 7.0 9.0 0.00 0.00 0.00 46 1013.4
20210614014704 66 68 6.0 13.0 0.00 0.00 0.00 46 1013.4
20210614014204 66 28 7.0 13.0 0.00 0.00 0.00 47 1013.4
20210614013704 66 68 7.0 8.0 0.00 0.00 0.00 46 1013.4
20210614013203 66 68 7.0 10.0 0.00 0.00 0.00 46 1013.4
20210614012704 67 68 6.0 10.0 0.00 0.00 0.00 46 1013.6
20210614012204 67 71 6.0 10.0 0.00 0.00 0.00 46 1013.6
20210614011704 67 22 5.0 9.0 0.00 0.00 0.00 46 1013.6
20210614011203 67 75 5.0 9.0 0.00 0.00 0.00 46 1013.6
20210614010704 67 90 4.0 7.0 0.00 0.00 0.00 46 1013.6
20210614010204 67 68 3.0 8.0 0.00 0.00 0.00 46 1013.6
20210614005704 67 90 3.0 3.0 0.00 0.00 0.00 46 1013.6
20210614005204 67 94 5.0 7.0 0.00 0.00 0.00 46 1013.6
20210614004704 67 180 5.0 10.0 0.00 0.00 0.00 46 1013.6
20210614004203 67 87 3.0 10.0 0.00 0.00 0.00 46 1013.6
20210614003704 67 68 3.0 6.0 0.00 0.00 0.00 46 1013.6
20210614003204 67 109 3.0 5.0 0.00 0.00 0.00 46 1013.6
20210614002704 68 90 3.0 5.0 0.00 0.00 0.00 46 1013.7
20210614002204 68 72 3.0 5.0 0.00 0.00 0.00 46 1013.7
20210614001704 68 68 3.0 5.0 0.00 0.00 0.00 46 1013.7
20210614001204 68 68 3.0 7.0 0.00 0.00 0.00 46 1013.7
20210614000703 68 135 3.0 7.0 0.00 0.00 0.00 46 1013.7
20210614000204 68 68 3.0 6.0 0.00 0.00 0.00 47 1013.7
20210613235703 68 68 3.0 6.0 0.00 0.00 0.00 47 1013.7
20210613235204 68 84 3.0 6.0 0.00 0.00 0.00 48 1013.7
20210613234703 68 68 3.0 6.0 0.00 0.00 0.00 48 1013.7
20210613234203 68 97 3.0 9.0 0.00 0.00 0.00 48 1013.7
20210613233704 68 248 2.0 7.0 0.00 0.00 0.00 48 1013.7
20210613233204 68 149 3.0 7.0 0.00 0.00 0.00 49 1013.7
20210613232704 68 90 3.0 6.0 0.00 0.00 0.00 49 1013.8
20210613232204 68 68 3.0 6.0 0.00 0.00 0.00 49 1013.8
20210613231703 68 135 3.0 5.0 0.00 0.00 0.00 49 1013.8
20210613231203 68 41 5.0 8.0 0.00 0.00 0.00 49 1013.8
20210613230704 68 68 5.0 10.0 0.00 0.00 0.00 49 1014.1
20210613230203 68 30 5.0 10.0 0.00 0.00 0.00 49 1014.1
20210613225703 68 68 5.0 7.0 0.00 0.00 0.00 49 1014.1
20210613225203 68 108 5.0 9.0 0.00 0.00 0.00 49 1014.1
20210613224703 69 105 5.0 9.0 0.00 0.00 0.00 49 1014.1
20210613224204 69 303 5.0 8.0 0.00 0.00 0.00 49 1014.1
20210613223703 69 45 6.0 8.0 0.00 0.00 0.00 48 1014.1
20210613223203 69 78 7.0 9.0 0.00 0.00 0.00 48 1014.1
20210613222704 69 68 7.0 9.0 0.00 0.00 0.00 48 1013.9
20210613222204 69 90 7.0 12.0 0.00 0.00 0.00 48 1013.9
20210613221704 69 135 7.0 12.0 0.00 0.00 0.00 48 1013.9
20210613221203 69 60 6.0 9.0 0.00 0.00 0.00 48 1013.9
20210613220704 69 45 6.0 9.0 0.00 0.00 0.00 47 1014.2
20210613220204 69 220 7.0 12.0 0.00 0.00 0.00 47 1014.2
20210613215704 70 83 7.0 12.0 0.00 0.00 0.00 47 1014.2
20210613215203 70 29 7.0 12.0 0.00 0.00 0.00 47 1014.2
20210613214703 70 90 6.0 9.0 0.00 0.00 0.00 47 1014.1
20210613214204 70 100 6.0 10.0 0.00 0.00 0.00 47 1014.1
20210613213704 70 90 7.0 9.0 0.00 0.00 0.00 47 1014.1
20210613213204 70 90 6.0 12.0 0.00 0.00 0.00 47 1014.1
20210613212705 70 68 5.0 12.0 0.00 0.00 0.00 47 1014.2
20210613212204 70 87 6.0 6.0 0.00 0.00 0.00 47 1014.2
20210613211703 70 112 7.0 7.0 0.00 0.00 0.00 46 1014.2
20210613211204 71 77 8.0 13.0 0.00 0.00 0.00 46 1014.2
20210613210704 71 68 6.0 13.0 0.00 0.00 0.00 46 1014.2
20210613210204 71 86 6.0 15.0 0.00 0.00 0.00 46 1014.2
20210613205704 71 45 6.0 15.0 0.00 0.00 0.00 46 1014.2
20210613205204 71 219 6.0 12.0 0.00 0.00 0.00 46 1014.2
20210613204704 71 45 6.0 6.0 0.00 0.00 0.00 46 1014.1
20210613204204 71 55 7.0 12.0 0.00 0.00 0.00 46 1014.1
20210613203704 71 338 7.0 10.0 0.00 0.00 0.00 47 1014.1
20210613203204 71 68 7.0 12.0 0.00 0.00 0.00 47 1014.1
20210613202704 71 90 7.0 12.0 0.00 0.00 0.00 47 1014.4
20210613202204 71 59 6.0 14.0 0.00 0.00 0.00 47 1014.4
20210613201704 71 135 5.0 6.0 0.00 0.00 0.00 47 1014.4
20210613201204 71 33 6.0 10.0 0.00 0.00 0.00 47 1014.4
20210613200704 71 68 6.0 10.0 0.00 0.00 0.00 47 1014.3
20210613200204 71 68 7.0 9.0 0.00 0.00 0.00 47 1014.3
20210613195704 71 68 8.0 7.0 0.00 0.00 0.00 47 1014.3
20210613195204 71 86 7.0 18.0 0.00 0.00 0.00 46 1014.3
20210613194704 71 68 6.0 10.0 0.00 0.00 0.00 46 1014.1
20210613194204 72 86 5.0 10.0 0.00 0.00 0.00 46 1014.1
20210613193704 71 22 4.0 8.0 0.00 0.00 0.00 46 1014.1
20210613193204 71 101 3.0 8.0 0.00 0.00 0.00 47 1014.1
20210613192703 72 90 5.0 7.0 0.00 0.00 0.00 47 1014.2
20210613192204 72 79 5.0 8.0 0.00 0.00 0.00 47 1014.2
20210613191705 72 90 6.0 7.0 0.00 0.00 0.00 47 1014.2
20210613191204 72 90 7.0 7.0 0.00 0.00 0.00 47 1014.2
20210613190704 72 68 7.0 15.0 0.00 0.00 0.00 47 1014.1
20210613190204 72 218 6.0 15.0 0.00 0.00 0.00 47 1014.1
20210613185704 72 90 5.0 9.0 0.00 0.00 0.00 47 1014.1
20210613185204 72 55 6.0 13.0 0.00 0.00 0.00 47 1014.1
20210613184704 72 68 6.0 18.0 0.00 0.00 0.00 47 1013.9
20210613184204 72 105 5.0 7.0 0.00 0.00 0.00 47 1013.9
20210613183703 72 112 6.0 6.0 0.00 0.00 0.00 47 1013.9
20210613183204 72 36 6.0 13.0 0.00 0.00 0.00 47 1013.9
20210613182704 72 90 5.0 13.0 0.00 0.00 0.00 47 1013.8
20210613182204 72 0 5.0 10.0 0.00 0.00 0.00 47 1013.8
20210613181703 72 292 4.0 6.0 0.00 0.00 0.00 47 1013.8
20210613181204 72 135 5.0 6.0 0.00 0.00 0.00 47 1013.8
20210613180704 72 270 6.0 8.0 0.00 0.00 0.00 47 1013.7
20210613180204 72 33 5.0 8.0 0.00 0.00 0.00 47 1013.7
20210613175704 72 112 5.0 8.0 0.00 0.00 0.00 47 1013.7
20210613175204 72 79 6.0 12.0 0.00 0.00 0.00 47 1013.7
20210613174704 72 22 6.0 12.0 0.00 0.00 0.00 47 1013.6
20210613174204 72 63 6.0 9.0 0.00 0.00 0.00 47 1013.6
20210613173704 72 90 5.0 7.0 0.00 0.00 0.00 46 1013.6
20210613173204 72 73 5.0 8.0 0.00 0.00 0.00 46 1013.6
20210613172704 72 68 5.0 9.0 0.00 0.00 0.00 46 1013.4
20210613172204 73 30 7.0 15.0 0.00 0.00 0.00 45 1013.4
20210613171704 73 68 9.0 15.0 0.00 0.00 0.00 45 1013.4
20210613171204 73 90 9.0 15.0 0.00 0.00 0.00 44 1013.4
20210613170704 73 90 7.0 15.0 0.00 0.00 0.00 44 1013.4
20210613170204 73 68 6.0 15.0 0.00 0.00 0.00 44 1013.4
20210613165703 74 68 7.0 9.0 0.00 0.00 0.00 43 1013.4
20210613165204 74 105 8.0 10.0 0.00 0.00 0.00 43 1013.4
20210613164704 74 135 9.0 17.0 0.00 0.00 0.00 43 1013.4
20210613164204 74 72 8.0 10.0 0.00 0.00 0.00 42 1013.4
20210613163703 75 68 7.0 13.0 0.00 0.00 0.00 43 1013.4
20210613163203 75 49 8.0 13.0 0.00 0.00 0.00 42 1013.4
20210613162703 75 292 9.0 12.0 0.00 0.00 0.00 42 1013.1
20210613162202 76 148 12.0 17.0 0.00 0.00 0.00 42 1013.1
20210613161703 76 68 9.0 15.0 0.00 0.00 0.00 41 1013.1
20210613161202 76 86 9.0 15.0 0.00 0.00 0.00 41 1013.1
20210613160703 76 135 8.0 13.0 0.00 0.00 0.00 41 1013.0
20210613160203 77 86 8.0 14.0 0.00 0.00 0.00 41 1013.0
20210613155702 77 45 8.0 15.0 0.00 0.00 0.00 41 1013.0
20210613155202 78 72 8.0 15.0 0.00 0.00 0.00 41 1013.0
20210613154703 78 68 9.0 20.0 0.00 0.00 0.00 41 1012.6
20210613154202 78 68 10.0 13.0 0.00 0.00 0.00 41 1012.6
20210613153703 78 68 11.0 12.0 0.00 0.00 0.00 41 1012.6
20210613153203 79 90 12.0 16.0 0.00 0.00 0.00 41 1012.6
20210613152703 79 22 11.0 13.0 0.00 0.00 0.00 42 1012.6
20210613152202 79 104 9.0 18.0 0.00 0.00 0.00 42 1012.6
20210613151702 79 45 9.0 15.0 0.00 0.00 0.00 42 1012.6
20210613151203 79 68 9.0 14.0 0.00 0.00 0.00 44 1012.6
20210613150702 79 135 9.0 14.0 0.00 0.00 0.00 45 1012.6